Tracking 19795 objects as of 19-Jul-2019
HD Live streaming from Space Station
objects crossing your sky now

NOAA 16 DEB

Track NOAA 16 DEB now!
10-day predictions


NORAD ID: 41200
Int'l Code: 2000-055DD
Perigee: 811.9 km
Apogee: 847.8 km
Inclination: 98.9 °
Period: 101.4 minutes
Semi major axis: 7200 km
RCS: Unknown
Launch date: September 21, 2000
Source: United States (US)
Launch site: AIR FORCE WESTERN TEST RANGE (AFWTR)

Note: This is SATELLITE DEBRIS
aabbcc
Your satellite tracking list
Your tracking list is empty




NASA's NSSDC Master Catalog

Two Line Element Set (TLE):
1 41200U 00055DD  19199.08497094  .00001064  00000-0  51225-3 0  9996
2 41200  98.8571 286.7957 0024881 254.0933 105.7502 14.20778976187085
Source of the keplerian elements: AFSPC